WJA51 EGKK-CYYT

Flight info

Callsign WJA51
Flight time N/A
Altitude 34000
Route IMVUR N63 SAM N19 ADKIK DCT FONZU DCT LESLU/M079F340 DCT DINIM/M079F350 NATF MUSAK/N0449F360 DCT TIGOR TIGOR5
Aircraft B38M/M-SDE1FGHILORVWXY/HB1

Departure

Time 2026-05-05 21:50
Airport London Gatwick Airport (EGKK)

Arrival

Time N/A
Airport St. John's International Airport (CYYT)
Time Latitude Longitude Altitude Speed Heading
2026-05-05 21:21 51.15821 -0.17733 206 ft 0 kts 347°
2026-05-05 21:34 51.15808 -0.17729 216 ft 3 kts 347°
2026-05-05 21:35 51.15788 -0.17722 214 ft 3 kts 347°
2026-05-05 21:35 51.15769 -0.17715 209 ft 3 kts 347°
2026-05-05 21:35 51.15750 -0.17706 212 ft 3 kts 327°
2026-05-05 21:35 51.15739 -0.17687 218 ft 3 kts 282°
2026-05-05 21:36 51.15739 -0.17667 213 ft 1 kts 257°
2026-05-05 21:36 51.15742 -0.17643 214 ft 2 kts 257°
2026-05-05 21:36 51.15744 -0.17634 211 ft 0 kts 257°
2026-05-05 21:40 51.15740 -0.17658 208 ft 7 kts 257°
2026-05-05 21:41 51.15723 -0.17788 206 ft 15 kts 258°
2026-05-05 21:41 51.15701 -0.17950 215 ft 16 kts 257°
2026-05-05 21:41 51.15677 -0.18122 210 ft 16 kts 257°
2026-05-05 21:41 51.15653 -0.18293 210 ft 11 kts 257°
2026-05-05 21:42 51.15596 -0.18350 210 ft 11 kts 176°
2026-05-05 21:42 51.15517 -0.18323 206 ft 13 kts 167°
2026-05-05 21:42 51.15420 -0.18289 210 ft 15 kts 167°
2026-05-05 21:42 51.15316 -0.18251 215 ft 16 kts 167°
2026-05-05 21:43 51.15214 -0.18233 215 ft 14 kts 204°
2026-05-05 21:43 51.15179 -0.18375 206 ft 15 kts 259°
2026-05-05 21:43 51.15156 -0.18543 209 ft 17 kts 257°
2026-05-05 21:43 51.15128 -0.18738 216 ft 19 kts 257°
2026-05-05 21:44 51.15099 -0.18963 215 ft 22 kts 257°
2026-05-05 21:44 51.15066 -0.19206 209 ft 23 kts 257°
2026-05-05 21:44 51.15030 -0.19453 207 ft 23 kts 257°
2026-05-05 21:44 51.14996 -0.19704 213 ft 23 kts 257°
2026-05-05 21:45 51.14960 -0.19961 206 ft 24 kts 257°
2026-05-05 21:45 51.14922 -0.20226 210 ft 25 kts 257°
2026-05-05 21:45 51.14886 -0.20487 205 ft 23 kts 258°
2026-05-05 21:45 51.14853 -0.20733 210 ft 23 kts 258°
2026-05-05 21:46 51.14821 -0.20967 209 ft 19 kts 258°
2026-05-05 21:46 51.14794 -0.21146 213 ft 11 kts 248°
2026-05-05 21:46 51.14775 -0.21239 206 ft 9 kts 255°
2026-05-05 21:46 51.14762 -0.21341 206 ft 10 kts 258°
2026-05-05 21:47 51.14701 -0.21395 206 ft 13 kts 163°
2026-05-05 21:47 51.14625 -0.21331 210 ft 9 kts 163°
2026-05-05 21:47 51.14619 -0.21328 209 ft 0 kts 167°
2026-05-05 21:48 51.14596 -0.21318 212 ft 9 kts 161°
2026-05-05 21:48 51.14521 -0.21211 206 ft 20 kts 110°
2026-05-05 21:48 51.14537 -0.21044 212 ft 6 kts 77°
2026-05-05 21:48 51.14537 -0.21040 206 ft 0 kts 78°
2026-05-05 21:49 51.14537 -0.21039 206 ft 0 kts 78°
2026-05-05 21:49 51.14549 -0.20951 208 ft 30 kts 78°
2026-05-05 21:49 51.14647 -0.20251 211 ft 98 kts 77°
2026-05-05 21:49 51.14836 -0.18873 207 ft 155 kts 77°
2026-05-05 21:50 51.15086 -0.17025 487 ft 180 kts 80°
2026-05-05 21:50 51.15323 -0.14999 1145 ft 191 kts 79°
2026-05-05 21:50 51.15603 -0.12945 1843 ft 191 kts 78°
2026-05-05 21:50 51.15911 -0.10763 1880 ft 209 kts 78°
2026-05-05 21:51 51.16253 -0.08482 1976 ft 218 kts 74°
2026-05-05 21:51 51.17049 -0.06411 2605 ft 229 kts 41°
2026-05-05 21:51 51.18483 -0.05128 3195 ft 247 kts 17°
2026-05-05 21:51 51.20228 -0.05103 3886 ft 257 kts 342°
2026-05-05 21:52 51.22614 -0.09141 5714 ft 268 kts 286°
2026-05-05 21:52 51.22690 -0.12114 6600 ft 274 kts 261°
2026-05-05 21:52 51.22289 -0.15114 7355 ft 279 kts 261°
2026-05-05 21:53 51.21911 -0.18173 8178 ft 282 kts 261°
2026-05-05 21:53 51.21532 -0.21268 8979 ft 286 kts 261°
2026-05-05 21:53 51.21149 -0.24402 9775 ft 290 kts 261°
2026-05-05 21:53 51.20758 -0.27598 10378 ft 300 kts 261°
2026-05-05 21:54 51.20348 -0.30971 10679 ft 320 kts 261°
2026-05-05 21:54 51.19911 -0.34552 10982 ft 338 kts 260°
2026-05-05 21:54 51.19420 -0.38286 11407 ft 351 kts 260°
2026-05-05 21:54 51.18918 -0.42125 12064 ft 355 kts 259°
2026-05-05 21:55 51.18414 -0.45997 12784 ft 358 kts 259°
2026-05-05 21:55 51.17905 -0.49902 13477 ft 362 kts 259°
2026-05-05 21:55 51.17317 -0.53814 14099 ft 366 kts 251°
2026-05-05 21:55 51.16326 -0.57560 14690 ft 369 kts 248°
2026-05-05 21:56 51.15319 -0.61330 14896 ft 372 kts 248°
2026-05-05 21:56 51.14306 -0.65130 14961 ft 372 kts 248°
2026-05-05 21:56 51.13295 -0.68918 14966 ft 371 kts 248°
2026-05-05 21:56 51.12282 -0.72707 15079 ft 373 kts 248°
2026-05-05 21:57 51.11267 -0.76498 15707 ft 373 kts 248°
2026-05-05 21:57 51.10247 -0.80302 16238 ft 377 kts 248°
2026-05-05 21:57 51.09212 -0.84154 16802 ft 380 kts 248°
2026-05-05 21:57 51.08168 -0.88034 17344 ft 383 kts 248°
2026-05-05 21:58 51.07113 -0.91949 17880 ft 386 kts 247°
2026-05-05 21:58 51.06050 -0.95891 18391 ft 389 kts 247°
2026-05-05 21:58 51.04981 -0.99838 18925 ft 389 kts 247°
2026-05-05 21:58 51.03907 -1.03802 19422 ft 391 kts 247°
2026-05-05 21:59 51.02827 -1.07782 19908 ft 394 kts 247°
2026-05-05 21:59 51.01739 -1.11783 20363 ft 396 kts 247°
2026-05-05 21:59 51.00645 -1.15801 20845 ft 397 kts 247°
2026-05-05 21:59 50.99543 -1.19838 21312 ft 399 kts 247°
2026-05-05 22:00 50.98439 -1.23882 21762 ft 401 kts 248°
2026-05-05 22:00 50.97323 -1.27954 22213 ft 403 kts 248°
2026-05-05 22:00 50.96204 -1.32039 22652 ft 405 kts 248°
2026-05-05 22:00 50.95535 -1.34800 22928 ft 405 kts 256°
2026-05-05 22:01 50.94956 -1.39167 23379 ft 406 kts 259°
2026-05-05 22:01 50.94384 -1.43571 23746 ft 408 kts 259°
2026-05-05 22:01 50.93818 -1.47964 24167 ft 408 kts 259°
2026-05-05 22:01 50.93251 -1.52392 24477 ft 411 kts 259°
2026-05-05 22:02 50.92680 -1.56836 24823 ft 412 kts 259°
2026-05-05 22:02 50.92105 -1.61305 25154 ft 414 kts 258°
2026-05-05 22:02 50.91527 -1.65784 25475 ft 416 kts 258°
2026-05-05 22:02 50.90944 -1.70286 25804 ft 418 kts 258°
2026-05-05 22:03 50.90357 -1.74807 26123 ft 420 kts 258°
2026-05-05 22:03 50.89765 -1.79348 26440 ft 422 kts 258°
2026-05-05 22:03 50.89169 -1.83906 26747 ft 424 kts 258°
2026-05-05 22:03 50.88569 -1.88482 27064 ft 425 kts 258°
2026-05-05 22:04 50.87965 -1.93078 27389 ft 427 kts 258°
2026-05-05 22:04 50.87358 -1.97686 27675 ft 429 kts 257°
2026-05-05 22:04 50.86744 -2.02315 27959 ft 430 kts 257°
2026-05-05 22:04 50.86126 -2.06960 28241 ft 432 kts 257°
2026-05-05 22:05 50.85505 -2.11626 28497 ft 434 kts 257°
2026-05-05 22:05 50.84877 -2.16318 28751 ft 437 kts 257°
2026-05-05 22:05 50.84245 -2.21025 29023 ft 438 kts 257°
2026-05-05 22:05 50.83618 -2.25687 29282 ft 440 kts 257°
2026-05-05 22:06 50.82968 -2.30495 29540 ft 442 kts 257°
2026-05-05 22:06 50.82332 -2.35192 29800 ft 443 kts 257°
2026-05-05 22:06 50.81683 -2.39963 30091 ft 444 kts 257°
2026-05-05 22:06 50.81034 -2.44728 30397 ft 443 kts 257°
2026-05-05 22:07 50.80383 -2.49492 30670 ft 443 kts 257°
2026-05-05 22:07 50.79805 -2.54267 30928 ft 444 kts 265°
2026-05-05 22:07 50.79845 -2.59137 31244 ft 443 kts 271°
2026-05-05 22:07 50.79939 -2.64007 31446 ft 444 kts 270°
2026-05-05 22:08 50.80037 -2.68888 31710 ft 444 kts 271°
2026-05-05 22:08 50.80146 -2.73761 31979 ft 444 kts 271°
2026-05-05 22:08 50.80256 -2.78632 32238 ft 443 kts 271°
2026-05-05 22:08 50.80366 -2.83509 32494 ft 443 kts 271°
2026-05-05 22:09 50.80474 -2.88381 32705 ft 444 kts 271°
2026-05-05 22:09 50.80580 -2.93252 32948 ft 444 kts 271°
2026-05-05 22:09 50.80684 -2.98128 33178 ft 444 kts 271°
2026-05-05 22:09 50.80786 -3.03002 33404 ft 444 kts 271°
2026-05-05 22:10 50.80886 -3.07880 33633 ft 444 kts 271°
2026-05-05 22:10 50.80985 -3.12755 33855 ft 444 kts 271°
2026-05-05 22:10 50.81081 -3.17629 34004 ft 444 kts 271°
2026-05-05 22:11 50.81266 -3.27376 33994 ft 442 kts 271°
2026-05-05 22:11 50.81445 -3.37129 33994 ft 446 kts 272°
2026-05-05 22:12 50.81615 -3.46939 33992 ft 446 kts 272°
2026-05-05 22:12 50.81777 -3.56742 33997 ft 446 kts 272°
2026-05-05 22:13 50.81932 -3.66544 33999 ft 446 kts 272°
2026-05-05 22:13 50.82078 -3.76366 34009 ft 447 kts 272°
2026-05-05 22:14 50.82219 -3.86195 34018 ft 448 kts 272°
2026-05-05 22:14 50.82723 -3.95986 34028 ft 447 kts 277°
2026-05-05 22:15 50.83330 -4.05704 34017 ft 447 kts 277°
2026-05-05 22:15 50.83908 -4.15488 34021 ft 447 kts 276°
2026-05-05 22:16 50.84476 -4.25271 34021 ft 446 kts 276°
2026-05-05 22:16 50.85031 -4.34956 34016 ft 440 kts 276°
2026-05-05 22:17 50.85576 -4.44627 34024 ft 442 kts 276°
2026-05-05 22:17 50.86112 -4.54301 34029 ft 440 kts 276°
2026-05-05 22:18 50.86641 -4.63960 34025 ft 441 kts 276°
2026-05-05 22:18 50.87162 -4.73640 34027 ft 441 kts 276°
2026-05-05 22:19 50.87670 -4.83249 34017 ft 436 kts 276°
2026-05-05 22:19 50.88172 -4.92862 34030 ft 440 kts 275°
2026-05-05 22:20 50.88666 -5.02484 34030 ft 437 kts 276°
2026-05-05 22:20 50.89151 -5.12086 34038 ft 438 kts 275°
2026-05-05 22:21 50.89630 -5.21719 34036 ft 438 kts 275°
2026-05-05 22:21 50.90098 -5.31322 34031 ft 437 kts 275°
2026-05-05 22:22 50.90561 -5.40942 34036 ft 439 kts 275°
2026-05-05 22:22 50.91015 -5.50574 34045 ft 437 kts 275°
2026-05-05 22:23 50.91460 -5.60182 34047 ft 438 kts 275°
2026-05-05 22:23 50.91899 -5.69827 34047 ft 438 kts 275°
2026-05-05 22:24 50.92329 -5.79448 34046 ft 437 kts 275°
2026-05-05 22:24 50.92751 -5.89079 34054 ft 439 kts 275°
2026-05-05 22:25 50.93166 -5.98716 34053 ft 437 kts 275°
2026-05-05 22:25 50.93571 -6.08336 34056 ft 438 kts 275°
2026-05-05 22:26 50.93970 -6.17984 34056 ft 439 kts 274°
2026-05-05 22:26 50.94362 -6.27644 34058 ft 439 kts 274°
2026-05-05 22:27 50.94746 -6.37313 34054 ft 439 kts 274°
2026-05-05 22:27 50.95121 -6.46980 34062 ft 439 kts 274°
2026-05-05 22:28 50.95489 -6.56643 34063 ft 439 kts 274°
2026-05-05 22:28 50.95849 -6.66315 34060 ft 439 kts 274°
2026-05-05 22:29 50.96201 -6.75996 34063 ft 440 kts 274°
2026-05-05 22:29 50.96545 -6.85679 34058 ft 440 kts 274°
2026-05-05 22:30 50.96881 -6.95363 34066 ft 440 kts 274°
2026-05-05 22:30 50.97209 -7.05053 34066 ft 440 kts 274°
2026-05-05 22:31 50.97527 -7.14678 34064 ft 439 kts 274°
2026-05-05 22:31 50.97841 -7.24426 34063 ft 439 kts 274°
2026-05-05 22:32 50.98145 -7.34111 34066 ft 440 kts 274°
2026-05-05 22:32 50.98439 -7.43734 34066 ft 440 kts 274°
2026-05-05 22:33 50.98727 -7.53421 34067 ft 440 kts 273°
2026-05-05 22:33 50.99008 -7.63113 34066 ft 439 kts 273°
2026-05-05 22:34 50.99283 -7.72801 34070 ft 439 kts 273°
2026-05-05 22:34 50.99551 -7.82482 34067 ft 439 kts 273°
2026-05-05 22:35 50.99811 -7.92178 34070 ft 439 kts 273°
2026-05-05 22:35 51.00071 -8.01864 34070 ft 439 kts 273°
2026-05-05 22:36 51.00351 -8.11558 34068 ft 440 kts 273°
2026-05-05 22:36 51.00627 -8.21261 34072 ft 440 kts 273°
2026-05-05 22:37 51.00896 -8.30958 34072 ft 440 kts 273°
2026-05-05 22:37 51.01156 -8.40660 34072 ft 440 kts 273°
2026-05-05 22:38 51.01408 -8.50369 34072 ft 440 kts 273°
2026-05-05 22:38 51.01652 -8.60075 34077 ft 439 kts 273°
2026-05-05 22:39 51.01888 -8.69764 34076 ft 439 kts 273°
2026-05-05 22:39 51.02116 -8.79445 34078 ft 438 kts 273°
2026-05-05 22:40 51.02335 -8.89117 34078 ft 438 kts 273°
2026-05-05 22:40 51.02547 -8.98798 34083 ft 439 kts 273°
2026-05-05 22:41 51.02749 -9.08409 34083 ft 437 kts 272°
2026-05-05 22:41 51.02943 -9.18054 34086 ft 437 kts 272°
2026-05-05 22:42 51.03131 -9.27704 34085 ft 437 kts 272°
2026-05-05 22:42 51.03310 -9.37356 34089 ft 437 kts 272°
2026-05-05 22:43 51.03481 -9.47008 34089 ft 437 kts 272°
2026-05-05 22:43 51.03643 -9.56635 34088 ft 435 kts 272°
2026-05-05 22:44 51.03798 -9.66232 34095 ft 434 kts 272°
2026-05-05 22:44 51.03920 -9.74191 34091 ft 434 kts 272°
2026-05-05 22:45 51.04060 -9.83787 34098 ft 435 kts 271°
2026-05-05 22:45 51.04191 -9.93372 34101 ft 433 kts 271°
2026-05-05 22:46 51.04316 -10.02962 34103 ft 435 kts 271°
2026-05-05 22:46 51.04432 -10.12566 34098 ft 434 kts 271°
2026-05-05 22:47 51.04540 -10.22149 34102 ft 434 kts 271°
2026-05-05 22:47 51.04641 -10.31750 34110 ft 435 kts 271°
2026-05-05 22:48 51.04734 -10.41329 34109 ft 434 kts 271°
2026-05-05 22:48 51.04819 -10.50926 34114 ft 434 kts 271°
2026-05-05 22:49 51.04895 -10.60500 34108 ft 432 kts 271°
2026-05-05 22:49 51.04965 -10.70072 34123 ft 435 kts 271°
2026-05-05 22:50 51.05026 -10.79659 34121 ft 432 kts 271°
2026-05-05 22:50 51.05079 -10.89217 34126 ft 434 kts 271°
2026-05-05 22:51 51.05125 -10.98809 34123 ft 433 kts 270°
2026-05-05 22:51 51.05163 -11.08374 34135 ft 433 kts 270°
2026-05-05 22:52 51.05193 -11.17944 34129 ft 433 kts 270°
2026-05-05 22:52 51.05215 -11.27508 34133 ft 433 kts 270°
2026-05-05 22:53 51.05229 -11.37071 34135 ft 433 kts 270°
2026-05-05 22:53 51.05236 -11.46631 34132 ft 432 kts 270°
2026-05-05 22:54 51.05234 -11.56128 34137 ft 432 kts 270°
2026-05-05 22:54 51.05225 -11.65685 34141 ft 433 kts 270°
2026-05-05 22:55 51.05208 -11.75242 34140 ft 432 kts 270°
2026-05-05 22:55 51.05184 -11.84800 34143 ft 432 kts 270°
2026-05-05 22:56 51.05151 -11.94352 34148 ft 431 kts 269°
2026-05-05 22:56 51.05111 -12.03859 34148 ft 430 kts 269°
2026-05-05 22:57 51.05064 -12.13367 34148 ft 430 kts 269°
2026-05-05 22:57 51.05008 -12.22880 34154 ft 430 kts 269°
2026-05-05 22:58 51.04945 -12.32386 34156 ft 430 kts 269°
2026-05-05 22:58 51.04874 -12.41894 34149 ft 430 kts 269°
2026-05-05 22:59 51.04796 -12.51387 34156 ft 430 kts 269°
2026-05-05 22:59 51.04710 -12.60878 34156 ft 430 kts 269°
2026-05-05 23:00 51.04566 -12.75121 34159 ft 429 kts 269°
2026-05-05 23:00 51.04461 -12.84607 34162 ft 429 kts 269°
2026-05-05 23:01 51.04349 -12.94039 34161 ft 430 kts 269°
2026-05-05 23:01 51.04228 -13.03542 34162 ft 430 kts 268°
2026-05-05 23:02 51.04099 -13.13044 34162 ft 430 kts 268°
2026-05-05 23:02 51.03963 -13.22549 34165 ft 430 kts 268°
2026-05-05 23:03 51.03819 -13.32050 34164 ft 430 kts 268°
2026-05-05 23:03 51.03667 -13.41559 34182 ft 432 kts 268°
2026-05-05 23:04 51.03507 -13.51081 34169 ft 433 kts 268°
2026-05-05 23:04 51.03339 -13.60649 34172 ft 433 kts 268°
2026-05-05 23:05 51.03163 -13.70220 34170 ft 433 kts 268°
2026-05-05 23:05 51.02979 -13.79792 34172 ft 434 kts 268°
2026-05-05 23:06 51.02787 -13.89381 34169 ft 435 kts 268°
2026-05-05 23:06 51.02586 -13.99005 34173 ft 436 kts 268°
2026-05-05 23:07 51.02377 -14.08623 34173 ft 436 kts 268°
2026-05-05 23:07 51.02161 -14.18244 34176 ft 436 kts 268°
2026-05-05 23:08 51.01936 -14.27863 34176 ft 436 kts 268°
2026-05-05 23:08 51.01705 -14.37497 34179 ft 436 kts 268°
2026-05-05 23:09 51.01468 -14.47126 34178 ft 437 kts 268°
2026-05-05 23:09 51.01223 -14.56759 34178 ft 437 kts 268°
2026-05-05 23:10 51.00971 -14.66387 34178 ft 436 kts 268°
2026-05-05 23:10 51.00711 -14.76020 34182 ft 436 kts 267°
2026-05-05 23:11 51.00444 -14.85643 34182 ft 436 kts 267°
2026-05-05 23:11 51.00171 -14.95209 34182 ft 437 kts 267°
2026-05-05 23:12 51.00668 -15.04744 34204 ft 435 kts 281°
2026-05-05 23:12 51.01825 -15.14276 34181 ft 437 kts 280°
2026-05-05 23:13 51.02960 -15.23697 34184 ft 437 kts 280°
2026-05-05 23:13 51.04095 -15.33170 34202 ft 436 kts 280°
2026-05-05 23:14 51.05219 -15.42625 34187 ft 435 kts 280°
2026-05-05 23:14 51.06336 -15.52080 34189 ft 435 kts 280°
2026-05-05 23:15 51.07444 -15.61535 34188 ft 435 kts 280°
2026-05-05 23:15 51.08545 -15.70996 34194 ft 435 kts 280°
2026-05-05 23:16 51.09637 -15.80461 34202 ft 436 kts 280°
2026-05-05 23:16 51.10722 -15.89926 34197 ft 433 kts 279°
2026-05-05 23:17 51.11795 -15.99357 34203 ft 434 kts 279°
2026-05-05 23:17 51.12863 -16.08816 34198 ft 434 kts 279°
2026-05-05 23:18 51.13923 -16.18281 34200 ft 434 kts 279°
2026-05-05 23:18 51.14974 -16.27735 34206 ft 434 kts 279°
2026-05-05 23:19 51.16013 -16.37148 34203 ft 435 kts 279°
2026-05-05 23:19 51.17053 -16.46653 34207 ft 436 kts 279°
2026-05-05 23:20 51.18087 -16.56168 34210 ft 436 kts 279°
2026-05-05 23:20 51.19114 -16.65696 34213 ft 436 kts 279°
2026-05-05 23:21 51.20131 -16.75216 34212 ft 436 kts 279°
2026-05-05 23:21 51.21141 -16.84739 34213 ft 436 kts 279°
2026-05-05 23:22 51.22144 -16.94278 34205 ft 436 kts 279°
2026-05-05 23:22 51.23140 -17.03831 34212 ft 437 kts 279°
2026-05-05 23:23 51.24129 -17.13386 34212 ft 437 kts 279°
2026-05-05 23:23 51.25111 -17.22950 34221 ft 437 kts 279°
2026-05-05 23:24 51.26085 -17.32526 34218 ft 437 kts 279°
2026-05-05 23:24 51.27051 -17.42102 34208 ft 437 kts 279°
2026-05-05 23:25 51.28009 -17.51678 34221 ft 437 kts 279°
2026-05-05 23:25 51.28959 -17.61267 34220 ft 437 kts 279°
2026-05-05 23:26 51.29901 -17.70852 34220 ft 437 kts 279°
2026-05-05 23:26 51.30830 -17.80380 34221 ft 437 kts 279°
2026-05-05 23:27 51.31757 -17.89976 34221 ft 437 kts 279°
2026-05-05 23:27 51.32677 -17.99583 34216 ft 437 kts 279°
2026-05-05 23:28 51.33588 -18.09189 34222 ft 437 kts 279°
2026-05-05 23:28 51.34346 -18.17246 34227 ft 437 kts 279°
2026-05-05 23:29 51.35246 -18.26885 34228 ft 439 kts 280°
2026-05-05 23:29 51.36138 -18.36536 34224 ft 439 kts 280°
2026-05-05 23:30 51.37023 -18.46195 34232 ft 438 kts 279°
2026-05-05 23:30 51.37899 -18.55852 34231 ft 439 kts 280°
2026-05-05 23:31 51.38764 -18.65468 34230 ft 439 kts 280°
2026-05-05 23:31 51.39626 -18.75154 34231 ft 439 kts 280°
2026-05-05 23:32 51.40480 -18.84844 34230 ft 439 kts 280°
2026-05-05 23:32 51.41327 -18.94537 34232 ft 440 kts 280°
2026-05-05 23:33 51.42165 -19.04236 34214 ft 440 kts 280°
2026-05-05 23:33 51.42997 -19.13952 34234 ft 441 kts 280°
2026-05-05 23:34 51.43822 -19.23692 34234 ft 442 kts 281°
2026-05-05 23:34 51.44641 -19.33448 34233 ft 442 kts 281°
2026-05-05 23:35 51.45451 -19.43207 34233 ft 442 kts 281°
2026-05-05 23:35 51.46254 -19.52971 34232 ft 442 kts 281°
2026-05-05 23:36 51.47051 -19.62733 34227 ft 442 kts 281°
2026-05-05 23:36 51.47841 -19.72511 34234 ft 442 kts 281°
2026-05-05 23:37 51.48623 -19.82285 34233 ft 442 kts 281°
2026-05-05 23:37 51.49397 -19.92057 34232 ft 442 kts 281°
2026-05-05 23:38 51.50049 -20.01860 34236 ft 443 kts 277°
2026-05-05 23:38 51.50415 -20.11744 34232 ft 443 kts 277°
2026-05-05 23:39 51.50817 -20.21628 34236 ft 445 kts 278°
2026-05-05 23:39 51.51217 -20.31542 34235 ft 445 kts 278°
2026-05-05 23:40 51.51609 -20.41459 34233 ft 445 kts 278°
2026-05-05 23:40 51.51993 -20.51370 34238 ft 445 kts 278°
2026-05-05 23:41 51.52369 -20.61287 34236 ft 445 kts 278°
2026-05-05 23:41 51.52734 -20.71142 34235 ft 445 kts 278°
2026-05-05 23:42 51.53093 -20.81076 34238 ft 446 kts 278°
2026-05-05 23:42 51.53444 -20.91012 34238 ft 446 kts 278°
2026-05-05 23:43 51.53787 -21.00946 34241 ft 446 kts 278°
2026-05-05 23:43 51.54121 -21.10885 34241 ft 446 kts 278°
2026-05-05 23:44 51.54447 -21.20822 34227 ft 445 kts 278°
2026-05-05 23:44 51.54765 -21.30763 34238 ft 445 kts 278°
2026-05-05 23:45 51.55073 -21.40695 34254 ft 445 kts 278°
2026-05-05 23:45 51.55374 -21.50634 34239 ft 446 kts 278°
2026-05-05 23:46 51.55666 -21.60583 34240 ft 445 kts 278°
2026-05-05 23:46 51.55950 -21.70526 34207 ft 445 kts 278°
2026-05-05 23:47 51.56225 -21.80441 34242 ft 444 kts 278°
2026-05-05 23:47 51.56491 -21.90343 34248 ft 443 kts 278°
2026-05-05 23:48 51.56748 -22.00245 34251 ft 443 kts 278°
2026-05-05 23:48 51.56997 -22.10147 34252 ft 443 kts 278°
2026-05-05 23:49 51.57238 -22.20052 34249 ft 444 kts 278°
2026-05-05 23:49 51.57470 -22.29933 34248 ft 441 kts 278°
2026-05-05 23:50 51.57693 -22.39767 34247 ft 440 kts 278°
2026-05-05 23:50 51.57906 -22.49527 34253 ft 439 kts 278°
2026-05-05 23:51 51.58112 -22.59345 34255 ft 439 kts 278°
2026-05-05 23:51 51.58309 -22.69165 34255 ft 439 kts 278°
2026-05-05 23:52 51.58498 -22.78977 34238 ft 438 kts 277°
2026-05-05 23:52 51.58679 -22.88749 34257 ft 437 kts 277°
2026-05-05 23:53 51.58851 -22.98513 34258 ft 437 kts 277°
2026-05-05 23:53 51.59015 -23.08279 34258 ft 437 kts 277°
2026-05-05 23:54 51.59171 -23.18045 34262 ft 437 kts 277°
2026-05-05 23:54 51.59319 -23.27811 34263 ft 437 kts 277°
2026-05-05 23:55 51.59458 -23.37558 34257 ft 435 kts 277°
2026-05-05 23:55 51.59590 -23.47292 34260 ft 435 kts 277°
2026-05-05 23:56 51.59713 -23.57022 34252 ft 435 kts 276°
2026-05-05 23:56 51.59828 -23.66771 34262 ft 436 kts 276°
2026-05-05 23:57 51.59935 -23.76508 34260 ft 435 kts 276°
2026-05-05 23:57 51.60034 -23.86242 34252 ft 435 kts 276°
2026-05-05 23:58 51.60125 -23.95979 34264 ft 435 kts 276°
2026-05-05 23:58 51.60208 -24.05709 34267 ft 435 kts 276°
2026-05-05 23:59 51.60282 -24.15381 34262 ft 435 kts 276°
2026-05-05 23:59 51.60349 -24.25115 34265 ft 435 kts 275°
2026-05-06 00:00 51.60408 -24.34853 34236 ft 435 kts 275°
2026-05-06 00:00 51.60459 -24.44592 34268 ft 436 kts 275°
2026-05-06 00:01 51.60501 -24.54342 34266 ft 436 kts 275°
2026-05-06 00:01 51.60536 -24.64097 34266 ft 436 kts 275°
2026-05-06 00:02 51.60562 -24.73857 34259 ft 437 kts 274°
2026-05-06 00:02 51.60581 -24.83643 34259 ft 437 kts 274°
2026-05-06 00:03 51.60591 -24.93426 34256 ft 438 kts 274°
2026-05-06 00:03 51.60594 -25.03242 34264 ft 439 kts 274°
2026-05-06 00:04 51.60588 -25.13053 34263 ft 439 kts 273°
2026-05-06 00:04 51.60574 -25.22867 34267 ft 439 kts 273°
2026-05-06 00:05 51.60537 -25.37593 34267 ft 439 kts 273°
2026-05-06 00:06 51.60503 -25.47403 34263 ft 439 kts 273°
2026-05-06 00:06 51.60460 -25.57218 34268 ft 439 kts 273°
2026-05-06 00:07 51.60409 -25.67036 34256 ft 439 kts 273°
2026-05-06 00:07 51.60350 -25.76855 34265 ft 439 kts 273°
2026-05-06 00:08 51.60282 -25.86678 34266 ft 439 kts 272°
2026-05-06 00:08 51.60207 -25.96518 34245 ft 440 kts 272°
2026-05-06 00:09 51.60123 -26.06356 34264 ft 440 kts 271°
2026-05-06 00:09 51.60030 -26.16206 34268 ft 440 kts 271°
2026-05-06 00:10 51.59931 -26.25982 34265 ft 440 kts 271°
2026-05-06 00:10 51.59840 -26.34225 34267 ft 440 kts 271°
2026-05-06 00:11 51.59725 -26.44066 34268 ft 440 kts 271°
2026-05-06 00:11 51.59580 -26.55493 34261 ft 439 kts 270°
2026-05-06 00:12 51.59470 -26.63713 34260 ft 439 kts 270°
2026-05-06 00:12 51.59330 -26.73539 34260 ft 439 kts 270°
2026-05-06 00:13 51.59183 -26.83291 34266 ft 439 kts 270°
2026-05-06 00:13 51.59026 -26.93110 34263 ft 439 kts 270°
2026-05-06 00:14 51.58862 -27.02938 34255 ft 441 kts 269°
2026-05-06 00:14 51.58688 -27.12812 34261 ft 442 kts 269°
2026-05-06 00:15 51.58506 -27.22692 34257 ft 442 kts 269°
2026-05-06 00:15 51.58316 -27.32567 34257 ft 442 kts 269°
2026-05-06 00:16 51.58118 -27.42438 34261 ft 442 kts 269°
2026-05-06 00:16 51.57911 -27.52317 34255 ft 442 kts 269°
2026-05-06 00:17 51.57695 -27.62208 34253 ft 444 kts 268°
2026-05-06 00:17 51.57470 -27.72148 34251 ft 445 kts 268°
2026-05-06 00:18 51.57237 -27.82079 34255 ft 445 kts 268°
2026-05-06 00:18 51.56995 -27.92006 34246 ft 444 kts 268°
2026-05-06 00:19 51.56746 -28.01931 34252 ft 444 kts 267°
2026-05-06 00:19 51.56487 -28.11862 34248 ft 445 kts 266°
2026-05-06 00:20 51.56219 -28.21836 34249 ft 447 kts 266°
2026-05-06 00:20 51.55943 -28.31818 34243 ft 447 kts 266°
2026-05-06 00:21 51.55657 -28.41801 34241 ft 447 kts 266°
2026-05-06 00:21 51.55364 -28.51778 34235 ft 447 kts 266°
2026-05-06 00:22 51.55062 -28.61756 34248 ft 447 kts 265°
2026-05-06 00:22 51.54751 -28.71726 34233 ft 447 kts 265°
2026-05-06 00:23 51.54433 -28.81691 34229 ft 447 kts 265°
2026-05-06 00:23 51.54106 -28.91655 34229 ft 447 kts 265°
2026-05-06 00:24 51.53770 -29.01621 34228 ft 447 kts 265°
2026-05-06 00:24 51.53430 -29.11580 34224 ft 447 kts 265°
2026-05-06 00:25 51.53083 -29.21491 34218 ft 441 kts 265°
2026-05-06 00:25 51.52730 -29.31335 34222 ft 443 kts 265°
2026-05-06 00:26 51.52368 -29.41226 34219 ft 444 kts 265°